Weather History for Jackson, KY

Change the Weather History Date:

Saturday, November 30, 2013

  Actual Average Record
Temperature  
Mean Temperature 43 °F 43 °F  
Max Temperature 56 °F 51 °F 73 °F (1998)
Min Temperature 29 °F 35 °F 24 °F (1989)
Degree Days  
Heating Degree Days 22 22  
Month to date heating degree days 617 504  
Since 1 July heating degree days 887 800  
Cooling Degree Days 0 0  
Month to date cooling degree days 0 4  
Year to date cooling degree days 1069 1154  
Moisture  
Dew Point 24 °F    
Average Humidity 54    
Maximum Humidity 75    
Minimum Humidity 32    
Precipitation  
Precipitation 0.00 in 0.14 in 2.50 in (2010)
Month to date precipitation 3.01 3.96  
Year to date precipitation 49.63 44.16  
Snow  
Snow 0.00 in 0.00 in - ()
Month to date snowfall 2.8 0.5  
Since 1 July snowfall 2.9 0.6  
Since 1 September snowfall 2.9 0.6  
Snow Depth 0.00 in    
Sea Level Pressure  
Sea Level Pressure 30.39 in    
Wind  
Wind Speed 4 mph (South)    
Max Wind Speed 12 mph    
Max Gust Speed 18 mph    
Visibility 10 miles    
Events      
T = Trace of Precipitation, MM = Missing Value Source: NWS Daily Summary

Daily Weather History Graph

Daily Weather History Graph

Search for Another Location

Airport:

Trip Planner

Search our weather history database for the weather conditions in past years. The results will help you decide how hot, cold, wet, or windy it might be!

Date:

Astronomy

Nov. 30, 2013 Rise Set
Actual Time 7:28 AM EST 5:15 PM EST
Civil Twilight 6:59 AM EST 5:44 PM EST
Nautical Twilight 6:27 AM EST 6:16 PM EST
Astronomical Twilight 5:55 AM EST 6:47 PM EST
Moon 4:41 AM EST (11/30) 3:36 PM EST (11/30)
Length of Visible Light 10h 44m
Length of Day
9h 46m
Waning Crescent, 7% of the Moon is Illuminated
Nov 30
Waning Crescent
Dec 2
New
Dec 9
First Quarter
Dec 17
Full
Dec 25
Last Quarter

Hourly Weather History & Observations

Time (EST) Temp. Windchill Dew Point Humidity Pressure Visibility Wind Dir Wind Speed Gust Speed Precip Events Conditions
12:53 AM 32.0 °F 27.5 °F 21.0 °F 64% 30.48 in 10.0 mi Variable 4.6 mph - N/A   Clear
1:53 AM 30.9 °F 27.5 °F 21.0 °F 67% 30.48 in 10.0 mi ENE 3.5 mph - N/A   Clear
2:53 AM 30.9 °F 27.5 °F 21.0 °F 67% 30.47 in 10.0 mi East 3.5 mph - N/A   Clear
3:53 AM 30.9 °F 26.2 °F 21.0 °F 67% 30.46 in 10.0 mi ESE 4.6 mph - N/A   Clear
4:53 AM 32.0 °F 27.5 °F 21.0 °F 64% 30.46 in 10.0 mi SSE 4.6 mph - N/A   Clear
5:53 AM 30.0 °F 26.5 °F 21.0 °F 69% 30.47 in 10.0 mi South 3.5 mph - N/A   Clear
6:53 AM 28.9 °F - 21.9 °F 75% 30.47 in 10.0 mi Calm Calm - N/A   Clear
7:53 AM 30.0 °F 26.5 °F 21.9 °F 72% 30.47 in 10.0 mi South 3.5 mph - N/A   Clear
8:53 AM 32.0 °F 28.7 °F 25.0 °F 75% 30.48 in 10.0 mi SSW 3.5 mph - N/A   Clear
9:53 AM 36.0 °F 33.3 °F 27.0 °F 70% 30.48 in 10.0 mi Variable 3.5 mph - N/A   Clear
10:53 AM 39.9 °F - 27.0 °F 60% 30.48 in 10.0 mi Calm Calm - N/A   Clear
11:53 AM 45.0 °F 43.5 °F 28.0 °F 52% 30.45 in 10.0 mi Variable 3.5 mph - N/A   Clear
12:05 PM 46.0 °F 44.8 °F 28.0 °F 50% 30.41 in 10.0 mi Variable 3.5 mph - N/A   Partly Cloudy
12:53 PM 50.0 °F - 27.0 °F 41% 30.39 in 10.0 mi Variable 5.8 mph - N/A   Clear
1:53 PM 55.0 °F - 27.0 °F 34% 30.36 in 10.0 mi Variable 5.8 mph - N/A   Clear
2:53 PM 55.0 °F - 27.0 °F 34% 30.33 in 10.0 mi SW 5.8 mph - N/A   Clear
3:53 PM 53.1 °F - 25.0 °F 34% 30.32 in 10.0 mi Variable 3.5 mph - N/A   Clear
4:53 PM 51.1 °F - 25.0 °F 36% 30.30 in 10.0 mi SSW 3.5 mph - N/A   Clear
5:53 PM 48.9 °F - 24.1 °F 38% 30.29 in 10.0 mi South 3.5 mph - N/A   Clear
6:53 PM 45.0 °F - 25.0 °F 46% 30.29 in 10.0 mi Calm Calm - N/A   Clear
7:53 PM 45.0 °F 41.8 °F 24.1 °F 44% 30.28 in 10.0 mi SSW 5.8 mph - N/A   Clear
8:53 PM 44.1 °F 41.5 °F 23.0 °F 43% 30.27 in 10.0 mi SSW 4.6 mph - N/A   Clear
9:53 PM 42.1 °F 37.7 °F 23.0 °F 47% 30.27 in 10.0 mi SSW 6.9 mph - N/A   Clear
10:53 PM 42.1 °F 39.2 °F 21.9 °F 45% 30.26 in 10.0 mi SSW 4.6 mph - N/A   Clear
11:53 PM 39.9 °F 36.7 °F 21.9 °F 49% 30.25 in 10.0 mi SSW 4.6 mph - N/A   Clear